Location: ?????????
(38.5999°N, 22.7695°E)
Time: 08:56:41
(UTC+00:00)

Cosmos 2154 Rocket - Pass Details

Date: 22 August 2024
Orbit: 964 x 997 km, 82.9° (Epoch: 07 September)

Event Time Altitude Azimuth Distance (km) Brightness Sun altitude
Rises 02:28:26 0° 350° (N) 3,664 7.3 -15.5°
Reaches altitude 10° 02:30:57 10° 349° (N) 2,712 6.6 -15.0°
Maximum altitude 02:37:07 74° 266° (W) 1,006 3.9 -14.0°
Drops below altitude 10° 02:43:15 10° 183° (S) 2,695 6.0 -12.9°
Sets 02:45:45 0° 181° (S) 3,639 6.7 -12.5°
